"Time","Temp","Dewpoint","Humidity","Pressure","Direction","Speed","Gust","Precip","PrecipRate"
"00:04:59","50.1","48.2","93","29.84","229","0","0","0.00","0.00"
"00:09:59","50","48.1","93","29.84","229","0","0","0.00","0.00"
"00:14:56","50","48.1","93","29.84","229","0","0","0.00","0.00"
"00:19:57","50","48.2","93.5","29.83","229","0","1.2","0.00","0.00"
"00:24:56","49.9","48.2","94","29.83","229","0","0","0.00","0.00"
"00:29:56","49.8","48.1","94","29.83","229","0","0","0.00","0.00"
"00:34:57","49.7","48","94","29.83","229","0","0","0.00","0.00"
"00:39:58","49.6","47.9","94","29.83","229","0","0","0.00","0.00"
"00:44:57","49.5","47.7","93.7","29.83","229","0","0","0.00","0.00"
"00:49:57","49.3","47.5","93.2","29.83","229","0","0","0.00","0.00"
"00:54:57","49.1","47.2","93","29.83","229","0","1.2","0.00","0.00"
"00:59:57","49","47.2","93.8","29.83","229","0.6","2.4","0.00","0.00"
"01:04:56","48.9","47.2","94","29.83","229","0","1.2","0.00","0.00"
"01:09:59","48.7","47.1","94","29.83","229","0","0","0.00","0.00"
"01:14:59","48.5","46.7","93.4","29.83","229","0","0","0.00","0.00"
"01:19:59","48.2","46.3","93","29.83","229","0","0","0.00","0.00"
"01:24:59","48","46.1","93","29.83","229","0","0","0.00","0.00"
"01:29:58","47.8","46.1","93.6","29.83","229","0","0","0.00","0.00"
"01:34:59","47.7","46.1","94","29.83","229","0","0","0.00","0.00"
"01:39:59","47.6","46","94","29.83","229","0","0","0.00","0.00"
"01:44:59","47.6","46","94","29.83","229","0.3","1.2","0.00","0.00"
"01:49:58","47.5","45.9","94","29.83","229","0","0","0.00","0.00"
"01:54:58","47.5","45.9","94","29.83","229","0","0","0.00","0.00"
"01:59:58","47.4","45.8","94","29.83","229","0","0","0.00","0.00"
"02:04:57","47.3","45.7","94","29.83","229","0","0","0.00","0.00"
"02:09:56","47.3","45.7","94.2","29.83","229","0","0","0.00","0.00"
"02:14:56","47.2","45.6","94","29.83","229","0","0","0.00","0.00"
"02:19:56","47.3","45.8","94.7","29.83","229","0","0","0.00","0.00"
"02:24:56","47.3","45.9","95","29.83","229","0","0","0.00","0.00"
"02:29:59","47.4","46","95","29.83","229","0","0","0.00","0.00"
"02:34:56","47.4","46","95","29.83","229","0","0","0.00","0.00"
"02:39:57","47.3","45.9","95","29.83","229","0","0","0.00","0.00"
"02:44:56","47.3","45.8","95","29.83","229","0","0","0.00","0.00"
"02:49:56","47.2","45.8","95","29.82","229","0","0","0.00","0.00"
"02:54:58","47.1","45.7","95","29.82","229","0","0","0.00","0.00"
"02:59:57","47","45.6","95","29.82","229","0.2","1.2","0.00","0.00"
"03:04:59","47.1","45.7","95","29.82","229","0.1","1.2","0.00","0.00"
"03:09:57","47","45.6","95","29.82","229","0","0","0.00","0.00"
"03:14:58","47","45.6","95","29.82","229","0","0","0.00","0.00"
"03:19:58","46.8","45.4","95","29.82","229","0","1.2","0.00","0.00"
"03:24:57","46.7","45.3","95","29.82","229","0.2","1.2","0.00","0.00"
"03:29:59","46.6","45.2","95","29.82","229","0","0","0.00","0.00"
"03:34:59","46.4","45","95","29.82","229","0","0","0.00","0.00"
"03:39:56","46.2","44.8","95","29.82","229","0","0","0.00","0.00"
"03:44:59","46.1","44.7","95","29.82","229","0","0","0.00","0.00"
"03:49:59","46","44.6","95","29.82","229","0","0","0.00","0.00"
"03:54:59","45.9","44.5","95","29.82","229","0","0","0.00","0.00"
"03:59:59","45.7","44.4","95","29.82","229","0","0","0.00","0.00"
"04:04:58","45.6","44.3","95","29.82","229","0","0","0.00","0.00"
"04:09:57","45.4","44.1","95","29.82","229","0","0","0.00","0.00"
"04:14:58","45.3","44","95","29.83","229","0","0","0.00","0.00"
"04:19:59","45.3","44","95","29.83","229","0","0","0.00","0.00"
"04:24:56","45.1","43.8","95","29.83","229","0","0","0.00","0.00"
"04:29:57","45.1","43.8","95","29.83","229","0","0","0.00","0.00"
"04:34:56","45","43.7","95","29.83","229","0","0","0.00","0.00"
"04:39:57","44.8","43.5","95","29.83","229","0","0","0.00","0.00"
"04:44:56","44.7","43.4","95","29.83","229","0","0","0.00","0.00"
"04:49:56","44.5","43.2","95","29.83","229","0","0","0.00","0.00"
"04:54:59","44.4","43.1","95","29.83","229","0","0","0.00","0.00"
"04:59:59","44.4","43.1","95","29.84","229","0","0","0.00","0.00"
"05:04:58","44.3","43","95","29.84","229","0","0","0.00","0.00"
"05:09:57","44.2","42.9","95","29.84","229","0","0","0.00","0.00"
"05:14:57","44","42.7","95","29.84","229","0","0","0.00","0.00"
"05:19:56","43.9","42.6","95","29.83","229","0","0","0.00","0.00"
"05:24:56","43.9","42.6","95","29.83","229","0","0","0.00","0.00"
"05:29:59","43.9","42.6","95","29.84","229","0","0","0.00","0.00"
"05:34:58","43.9","42.6","95","29.84","229","0","0","0.00","0.00"
"05:39:58","43.9","42.6","95","29.84","229","0","0","0.00","0.00"
"05:44:57","44","42.7","95","29.84","229","0","0","0.00","0.00"
"05:49:57","44.1","43","95.9","29.84","229","0","0","0.00","0.00"
"05:54:56","44.3","43.1","95.8","29.84","229","0","0","0.00","0.00"
"05:59:56","44.3","43.2","96","29.85","229","0","0","0.00","0.00"
"06:04:59","44.4","43.3","96","29.85","229","0","0","0.00","0.00"
"06:09:59","44.5","43.4","96","29.85","229","0","0","0.00","0.00"
"06:14:56","44.8","43.7","96","29.85","229","0","0","0.00","0.00"
"06:19:56","44.9","43.8","96","29.85","229","0","0","0.00","0.00"
"06:24:59","45","43.9","96","29.85","229","0","0","0.00","0.00"
"06:29:58","45.1","44","96","29.85","229","0","0","0.00","0.00"
"06:34:57","45.1","44","96","29.85","229","0","0","0.00","0.00"
"06:39:57","45.2","44.1","96","29.85","229","0","0","0.00","0.00"
"06:44:59","45.3","44.2","96","29.85","229","0","0","0.00","0.00"
"06:49:59","45.3","44.2","96","29.85","229","0","0","0.00","0.00"
"06:54:58","45.4","44.3","96","29.85","229","0","0","0.00","0.00"
"06:59:57","45.4","44.3","96","29.85","229","0","0","0.00","0.00"
"07:04:56","45.4","44.3","96","29.85","229","0","0","0.00","0.00"
"07:09:58","45.5","44.4","96","29.85","229","0","0","0.00","0.00"
"07:14:58","45.6","44.5","96","29.85","229","0","0","0.00","0.00"
"07:19:57","45.5","44.4","96","29.84","229","0","0","0.00","0.00"
"07:24:56","45.5","44.4","96","29.84","229","0","0","0.00","0.00"
"07:29:59","45.5","44.4","96","29.85","229","0","0","0.00","0.00"
"07:34:58","45.4","44.3","96","29.85","229","0","0","0.00","0.00"
"07:39:58","45.4","44.3","96","29.85","229","0.2","1.2","0.00","0.00"
"07:44:57","45.3","44.2","96","29.85","229","0","1.2","0.00","0.00"
"07:49:56","45.3","44.2","96","29.85","229","0","0","0.00","0.00"
"07:54:58","45.4","44.3","96","29.85","229","0","0","0.00","0.00"
"07:59:57","45.6","44.5","96","29.85","229","0","1.2","0.00","0.00"
"08:04:56","45.8","44.7","96","29.85","229","0.2","1.2","0.00","0.00"
"08:09:59","46.2","45.1","96","29.85","227","0.7","2.4","0.00","0.00"
"08:14:58","46.6","45.5","96","29.85","227","0","1.2","0.00","0.00"
"08:19:56","47","46.2","96.8","29.85","215","1.3","3.6","0.00","0.00"
"08:24:58","47.2","46.1","96.1","29.85","213","1.4","3.6","0.00","0.00"
"08:29:56","47.4","46.3","96","29.86","209","1.1","3.6","0.00","0.00"
"08:34:59","47.5","46.4","96","29.86","209","0.4","2.3","0.00","0.00"
"08:39:58","47.8","46.7","96","29.86","209","0","0","0.00","0.00"
"08:44:56","48","46.7","95.3","29.87","209","0.1","1.2","0.00","0.00"
"08:49:59","48.1","46.7","95","29.87","209","0.2","1.2","0.00","0.00"
"08:54:57","48.4","47","95","29.87","209","0","1.2","0.00","0.00"
"08:59:59","49.1","47.4","93.9","29.87","209","0.2","1.2","0.00","0.00"
"09:04:58","50","48","92.8","29.87","209","0.2","1.2","0.00","0.00"
"09:09:57","50.7","48.3","91.4","29.87","209","0.1","1.2","0.00","0.00"
"09:14:56","51","48.1","89.8","29.87","209","0.2","1.2","0.00","0.00"
"09:19:59","50.8","47.7","89","29.87","209","0.1","1.2","0.00","0.00"
"09:24:57","51.6","48.5","89.2","29.87","209","0","0","0.00","0.00"
"09:29:56","51.9","48.6","88.4","29.87","209","0","0","0.00","0.00"
"09:34:58","52.3","48.2","85.8","29.87","209","0","0","0.00","0.00"
"09:39:56","53.2","48.8","85","29.87","209","0","0","0.00","0.00"
"09:44:59","53.3","48.6","83.8","29.87","209","0","0","0.00","0.00"
"09:49:58","53.9","49.4","84.5","29.87","209","0","0","0.00","0.00"
"09:54:56","54.1","49","82.8","29.87","209","0","0","0.00","0.00"
"09:59:59","55","50","83.3","29.88","209","0","0","0.00","0.00"
"10:04:58","55.4","49.8","81.3","29.88","267","0","0","0.00","0.00"
"10:09:56","55.9","49.8","79.8","29.88","267","0","0","0.00","0.00"
"10:14:59","56.9","50.6","79.4","29.88","267","0","0","0.00","0.00"
"10:19:58","57.7","50.3","76.4","29.87","269","0","0","0.00","0.00"
"10:24:56","57.9","50.6","76.6","29.87","269","0","0","0.00","0.00"
"10:29:59","58.8","51.7","77.3","29.87","269","0","0","0.00","0.00"
"10:34:57","59.3","51.6","75.7","29.87","269","0","0","0.00","0.00"
"10:39:56","59","51.2","75.4","29.87","269","0","0","0.00","0.00"
"10:44:58","59.7","51.9","75.5","29.87","178","0","0","0.00","0.00"
"10:49:58","59.3","50.8","73.6","29.87","178","0","0","0.00","0.00"
"10:54:57","60.1","51.7","74","29.87","178","0","0","0.00","0.00"
"10:59:59","60","51.1","72.3","29.87","179","0","0","0.00","0.00"
"11:04:58","60.5","51.8","72.9","29.86","179","0","0","0.00","0.00"
"11:09:56","61.7","52.1","70.8","29.86","179","0","0","0.00","0.00"
"11:14:59","62.3","52.7","70.7","29.86","234","0","0","0.00","0.00"
"11:19:58","62","50.8","66.8","29.86","284","0","0","0.00","0.00"
"11:24:55","62","50.9","67","29.86","276","0","0","0.00","0.00"
"11:29:58","63.3","51.9","66.5","29.86","222","0.7","4.8","0.00","0.00"
"11:34:56","63.7","51.4","64.4","29.85","351","2.3","8.4","0.00","0.00"
"11:39:59","63.8","50.4","61.9","29.85","350","3.6","8.4","0.00","0.00"
"11:44:57","64.7","51.3","61.8","29.85","308","1.8","8.4","0.00","0.00"
"11:49:56","65.1","51.7","61.7","29.85","305","2.7","8.1","0.00","0.00"
"11:54:58","65.1","50.4","59.1","29.85","313","3.3","8.4","0.00","0.00"
"11:59:56","64.4","50.1","59.6","29.85","276","2.2","6","0.00","0.00"
"12:04:59","65","51.4","61.5","29.84","342","2.2","10.8","0.00","0.00"
"12:09:58","65.1","51.1","60.3","29.84","346","2.3","7.2","0.00","0.00"
"12:14:57","64.4","50.3","60.2","29.84","351","2.4","6","0.00","0.00"
"12:19:59","63.5","50.1","61.5","29.84","328","1.5","7.2","0.00","0.00"
"12:24:57","63.6","49.8","60.9","29.84","324","2.5","6","0.00","0.00"
"12:29:56","62.9","49.8","62.3","29.84","207","1.3","3.6","0.00","0.00"
"12:34:58","63.3","51","64.1","29.84","180","0","1.2","0.00","0.00"
"12:39:57","64.5","49.8","59.1","29.84","267","2.5","13.2","0.00","0.00"
"12:44:59","66.1","49.9","55.8","29.84","244","2.9","8.1","0.00","0.00"
"12:49:58","67.7","51.5","56.2","29.83","231","3.8","8.4","0.00","0.00"
"12:54:56","67.6","48.6","50.6","29.83","239","3.9","8.4","0.00","0.00"
"12:59:58","67.4","47.6","49","29.83","223","4.9","15","0.00","0.00"
"13:04:57","67.8","45.7","45.1","29.83","241","4","10.8","0.00","0.00"
"13:09:56","67.7","44.3","42.8","29.83","220","6.2","12","0.00","0.00"
"13:14:59","67.5","44.4","43.3","29.83","267","4.5","10.8","0.00","0.00"
"13:19:58","67.4","43.9","42.6","29.82","254","5.4","17.3","0.01","0.00"
"13:24:56","67.5","44.5","43.5","29.82","234","5.1","16.1","0.01","0.01"
"13:29:59","67.9","44.7","43.2","29.82","231","3.2","9.6","0.01","0.01"
"13:34:57","67.9","44.7","43.1","29.82","244","5.6","13.2","0.01","0.01"
"13:39:56","68.6","46.6","45.3","29.82","251","2.7","7.2","0.01","0.01"
"13:44:59","68.3","45.2","43.4","29.82","266","4.2","13.2","0.01","0.01"
"13:49:57","67.6","44.8","43.8","29.81","307","4","15.6","0.01","0.01"
"13:54:56","67.8","44.4","42.9","29.81","290","3.6","8.4","0.01","0.01"
"13:59:58","67","44.1","43.7","29.81","301","3.8","15","0.01","0.01"
"14:04:57","67.1","44","43.4","29.81","343","2.9","10.8","0.01","0.01"
"14:09:56","68.8","46.8","45.4","29.81","269","2.8","9.6","0.01","0.01"
"14:14:59","68.2","44.7","42.8","29.81","231","5.1","12","0.01","0.01"
"14:19:58","68.7","46.3","44.7","29.80","348","1.2","4.6","0.01","0.01"
"14:24:56","69.3","45.1","41.9","29.80","263","4","14.4","0.01","0.00"
"14:29:59","68.6","44.7","42.2","29.80","249","4.2","10.4","0.01","0.00"
"14:34:57","68.8","45.7","43.5","29.80","223","2.5","7.2","0.01","0.00"
"14:39:57","68.8","44.5","41.6","29.80","299","5.7","13.2","0.01","0.00"
"14:44:59","68","43.1","40.6","29.80","282","4","14.4","0.01","0.00"
"14:49:58","68.4","44","41.3","29.80","291","3.7","15","0.01","0.00"
"14:54:56","68.8","44","41","29.80","240","5.3","9.6","0.01","0.00"
"14:59:59","68","44.4","42.7","29.80","213","3.4","9.2","0.01","0.00"
"15:04:58","67.1","43.9","43","29.79","253","2.4","4.8","0.01","0.00"
"15:09:56","67.9","45","43.8","29.79","346","2.7","12","0.01","0.00"
"15:14:59","68.8","44.9","42.1","29.79","323","3.6","12","0.01","0.00"
"15:19:56","69.5","46.2","43.4","29.79","333","2.5","8.4","0.01","0.00"
"15:24:58","69.7","45.9","42.6","29.79","322","1.5","4.8","0.01","0.00"
"15:29:57","70","46.9","43.8","29.79","241","1.8","6","0.01","0.00"
"15:34:59","69.7","44.5","40.5","29.78","293","4.9","13.2","0.01","0.00"
"15:39:59","69","43.7","40","29.78","328","5.2","10.8","0.01","0.00"
"15:44:57","68.2","43.1","40.3","29.79","287","1.9","5.8","0.01","0.00"
"15:49:56","68.1","44.2","42.2","29.79","243","2.2","8.4","0.01","0.00"
"15:54:58","68.9","45.1","42.4","29.79","343","3.2","10.8","0.01","0.00"
"15:59:57","68","43.4","41","29.79","344","3.3","10.4","0.01","0.00"
"16:04:57","67.6","44.3","43","29.79","326","1.8","5.8","0.01","0.00"
"16:09:59","67.4","43.7","42.3","29.79","316","2.6","6","0.01","0.00"
"16:14:59","68.6","44.7","42.2","29.79","295","2","4.8","0.01","0.00"
"16:19:58","68.9","44.6","41.6","29.78","228","1.2","4.8","0.01","0.00"
"16:24:56","68.7","44.7","42.1","29.78","281","2.7","6","0.01","0.00"
"16:29:59","69","45.5","43","29.78","218","2.5","8.4","0.01","0.00"
"16:34:57","69.4","44.8","41.3","29.78","192","3.1","8.1","0.01","0.00"
"16:39:57","69.6","45.4","41.9","29.78","340","1.6","4.6","0.01","0.00"
"16:44:56","69.5","44","39.8","29.78","315","2.5","7.2","0.01","0.00"
"16:49:58","69.3","44.7","41.2","29.78","252","2.5","6","0.01","0.00"
"16:54:56","69.6","44.4","40.3","29.78","278","1.3","4.8","0.01","0.00"
"16:59:56","69.6","44","39.7","29.78","338","2.4","4.8","0.01","0.00"
"17:04:59","69.5","44.7","40.9","29.78","249","1.2","3.6","0.01","0.00"
"17:09:57","69.8","45.4","41.6","29.78","208","0.7","3.6","0.01","0.00"
"17:14:57","69.6","44.1","39.8","29.78","214","1.6","4.8","0.01","0.00"
"17:19:57","69.1","43.6","39.8","29.78","305","2.1","6","0.01","0.00"
"17:24:59","69","44.8","41.9","29.78","194","1.2","4.8","0.01","0.00"
"17:29:58","69","45.2","42.4","29.78","192","0","0","0.01","0.00"
"17:34:57","68.6","43.7","40.7","29.78","192","0","0","0.01","0.00"
"17:39:57","68.2","43.7","41.2","29.78","192","0.2","2.4","0.01","0.00"
"17:44:56","67.8","44.1","42.4","29.78","192","0","0","0.01","0.00"
"17:49:59","67.4","44.2","43.2","29.78","192","0","0","0.01","0.00"
"17:54:58","67","46.3","47.4","29.78","192","0","0","0.01","0.00"
"17:59:57","66.3","46.4","48.6","29.79","192","0","0","0.01","0.00"
"18:04:56","65.7","45.2","47.6","29.79","192","0","0","0.01","0.00"
"18:09:58","64.9","46.7","51.6","29.79","192","0","0","0.01","0.00"
"18:14:58","63.9","46.4","53.1","29.79","192","0","0","0.01","0.00"
"18:19:58","63","46.9","55.8","29.79","192","0","0","0.01","0.00"
"18:24:57","62.2","46.9","57.2","29.79","192","0","0","0.01","0.00"
"18:29:57","61.7","47.8","60.3","29.80","192","0","0","0.01","0.00"
"18:34:59","61.1","47.6","61.2","29.80","192","0","0","0.01","0.00"
"18:39:56","60.8","47.7","62.2","29.80","192","0","0","0.01","0.00"
"18:44:59","60.5","47.8","63.1","29.80","192","0","0","0.01","0.00"
"18:49:59","60.1","47.9","64","29.80","192","0","0","0.01","0.00"
"18:54:58","59.5","47.7","64.9","29.80","192","0","0","0.01","0.00"
"18:59:57","58.9","47.7","66.3","29.80","192","0","0","0.01","0.00"
"19:04:56","58.4","47.7","67.5","29.80","192","0","0","0.01","0.00"
"19:09:59","58","47.6","68.4","29.80","192","0","0","0.01","0.00"
"19:14:56","57.6","47.6","69.4","29.81","192","0","0","0.01","0.00"
"19:19:56","57.1","48","71.5","29.81","192","0","0","0.01","0.00"
"19:24:59","56.7","48.1","73.1","29.81","192","0","0","0.01","0.00"
"19:29:59","56.4","48.2","74","29.82","192","0","0","0.01","0.00"
"19:34:58","56.2","48","74","29.82","192","0","0","0.01","0.00"
"19:39:59","55.9","48.1","74.8","29.82","192","0","0","0.01","0.00"
"19:44:59","55.9","48.4","76","29.82","192","0","0","0.01","0.00"
"19:49:58","56","48.8","76.8","29.82","192","0","0","0.01","0.00"
"19:54:58","55.9","48.9","77.3","29.82","192","0","0","0.01","0.00"
"19:59:57","55.9","48.8","77","29.82","192","0","0","0.01","0.00"
"20:04:56","55.9","48.8","77","29.82","192","0","0","0.01","0.00"
"20:09:59","55.7","48.6","77","29.82","192","0","0","0.01","0.00"
"20:14:59","55.4","48.6","77.7","29.82","192","0","0","0.01","0.00"
"20:19:59","55.1","48.7","79","29.82","192","0","0","0.01","0.00"
"20:24:58","55","48.4","78.4","29.82","192","0","0","0.01","0.00"
"20:29:57","54.8","48.4","79","29.83","192","0","0","0.01","0.00"
"20:34:56","54.7","48.5","79.6","29.83","192","0","0","0.01","0.00"
"20:39:56","54.6","48.4","79.5","29.83","192","0","0","0.01","0.00"
"20:44:59","54.5","48.1","79","29.83","192","0","0","0.01","0.00"
"20:49:59","54.3","48.4","80.4","29.83","192","0","0","0.01","0.00"
"20:54:58","54","48.3","81","29.83","192","0","0","0.01","0.00"
"20:59:58","53.8","48.3","81.6","29.84","192","0","0","0.01","0.00"
"21:04:58","53.6","48.2","82","29.84","192","0","0","0.01","0.00"
"21:09:56","53.6","48.2","82","29.84","192","0","0","0.01","0.00"
"21:14:57","53.7","48.3","82","29.84","192","0","0","0.01","0.00"
"21:19:57","53.7","48.3","82","29.84","192","0","0","0.01","0.00"
"21:24:56","53.7","48.3","82","29.84","192","0","0","0.01","0.00"
"21:29:59","53.5","48.5","82.9","29.84","192","0","0","0.01","0.00"
"21:34:59","53.3","48.3","83","29.84","192","0","0","0.01","0.00"
"21:39:59","53","48","83","29.84","192","0","0","0.01","0.00"
"21:44:59","52.8","47.8","83","29.85","192","0","0","0.01","0.00"
"21:49:59","52.7","47.7","83","29.85","192","0","0","0.01","0.00"
"21:54:58","52.6","47.6","83","29.85","192","0","0","0.01","0.00"
"21:59:58","52.5","47.7","84","29.85","192","0","0","0.01","0.00"
"22:04:57","52.3","47.6","84","29.85","192","0","0","0.01","0.00"
"22:09:56","52.1","47.5","84.4","29.85","192","0","0","0.01","0.00"
"22:14:56","51.9","47.5","85","29.85","192","0","0","0.01","0.00"
"22:19:56","51.8","47.4","85","29.84","192","0","0","0.01","0.00"
"22:24:59","51.5","47.3","85.5","29.84","192","0","0","0.01","0.00"
"22:29:59","51.3","47.5","86.7","29.84","193","0","0","0.01","0.00"
"22:34:58","51.1","47.4","87","29.84","193","0","0","0.01","0.00"
"22:39:59","51","47.3","87","29.84","193","0","0","0.01","0.00"
"22:44:59","50.9","47.2","87","29.85","193","0","0","0.01","0.00"
"22:49:59","50.7","47","87","29.85","193","0","0","0.01","0.00"
"22:54:58","50.5","47","87.7","29.85","193","0","0","0.01","0.00"
"22:59:58","50.3","46.9","88","29.85","193","0","0","0.01","0.00"
"23:04:56","50.2","46.9","88.4","29.85","193","0","0","0.01","0.00"
"23:09:59","50.1","46.9","88.8","29.85","193","0","0","0.01","0.00"
"23:14:56","50","46.9","89","29.85","193","0","0","0.01","0.00"
"23:19:56","50","46.9","89","29.85","193","0","0","0.01","0.00"
"23:24:59","50.1","47","89.2","29.85","193","0","0","0.01","0.00"
"23:29:59","50","47.2","89.8","29.85","193","0","0","0.01","0.00"
"23:34:58","50.1","47.3","90","29.85","193","0","0","0.01","0.00"
"23:39:59","50.1","47.3","90","29.85","193","0","0","0.01","0.00"
"23:44:59","50.2","47.4","90","29.85","193","0","0","0.01","0.00"
"23:49:59","50.3","47.5","90","29.85","193","0","0","0.01","0.00"
